Weather History for Orsta-Volda, Norway

Change the Weather History Date:

Wednesday, November 21, 2012

  Actual Average Record
Temperature  
Mean Temperature 48 °F -  
Max Temperature 55 °F 35 °F 55 °F (2012)
Min Temperature 42 °F 29 °F 10 °F (2002)
Degree Days  
Heating Degree Days 16    
Moisture  
Dew Point 37 °F    
Average Humidity 60    
Maximum Humidity 87    
Minimum Humidity 44    
Precipitation  
Precipitation 0.00 in - - ()
Sea Level Pressure  
Sea Level Pressure 29.72 in    
Wind  
Wind Speed 9 mph ()    
Max Wind Speed 20 mph    
Max Gust Speed 37 mph    
Visibility 6.2 miles    
Events Rain    
Averages and records for this station are not official NWS values.
T = Trace of Precipitation, MM = Missing Value Source: Averaged Metar Reports

Daily Weather History Graph

Daily Weather History Graph

Search for Another Location

Airport:

Trip Planner

Search our weather history database for the weather conditions in past years. The results will help you decide how hot, cold, wet, or windy it might be!

Date:

Astronomy

Nov. 21, 2012 Rise Set
Actual Time 9:06 AM CET 3:36 PM CET
Civil Twilight 8:09 AM CET 4:33 PM CET
Nautical Twilight 7:11 AM CET 5:31 PM CET
Astronomical Twilight 6:18 AM CET 6:24 PM CET
Moon 1:36 PM CET (11/21) 12:05 AM CET (11/21)
Length of Visible Light 8h 24m
Length of Day
6h 30m
First Quarter, 59% of the Moon is Illuminated
Nov 21
First Quarter
Nov 28
Full
Dec 6
Last Quarter
Dec 13
New
Dec 20
First Quarter

Hourly Weather History & Observations

Time (CET) Temp. Dew Point Humidity Pressure Visibility Wind Dir Wind Speed Gust Speed Precip Events Conditions
6:20 AM 55.4 °F 37.4 °F 51% 29.56 in 6.2 mi WSW 19.6 mph 36.8 mph N/A   Partly Cloudy
6:50 AM 55.4 °F 35.6 °F 47% 29.59 in 6.2 mi WSW 15.0 mph 34.5 mph N/A   Partly Cloudy
7:50 AM 55.4 °F 35.6 °F 47% 29.62 in 6.2 mi WSW 13.8 mph 28.8 mph N/A   Partly Cloudy
8:50 AM 55.4 °F 33.8 °F 44% 29.65 in 6.2 mi Variable 9.2 mph - N/A   Partly Cloudy
9:50 AM 53.6 °F 35.6 °F 51% 29.68 in 6.2 mi Variable 8.1 mph - N/A Rain Light Rain Showers
10:20 AM 53.6 °F 35.6 °F 51% 29.68 in 6.2 mi Variable 8.1 mph - N/A   Scattered Clouds
10:50 AM 53.6 °F 35.6 °F 51% 29.71 in 6.2 mi WSW 12.7 mph - N/A Rain Light Rain Showers
11:20 AM 51.8 °F 35.6 °F 54% 29.71 in 6.2 mi WSW 11.5 mph - N/A   Mostly Cloudy
11:50 AM 50.0 °F 37.4 °F 62% 29.74 in 6.2 mi Variable 6.9 mph - N/A   Mostly Cloudy
12:20 PM 50.0 °F 37.4 °F 62% 29.74 in 6.2 mi Variable 6.9 mph - N/A   Mostly Cloudy
12:50 PM 50.0 °F 37.4 °F 62% 29.74 in 6.2 mi West 8.1 mph - N/A   Mostly Cloudy
1:50 PM 51.8 °F 37.4 °F 58% 29.77 in 6.2 mi Variable 6.9 mph - N/A   Mostly Cloudy
3:50 PM 50.0 °F 37.4 °F 62% 29.77 in 6.2 mi West 5.8 mph - N/A   Scattered Clouds
4:50 PM 50.0 °F 37.4 °F 62% 29.77 in 6.2 mi WSW 8.1 mph - N/A   Scattered Clouds
5:50 PM 50.0 °F 37.4 °F 62% 29.77 in 6.2 mi Variable 2.3 mph - N/A   Scattered Clouds
6:50 PM 50.0 °F 35.6 °F 58% 29.77 in 6.2 mi Variable 1.2 mph - N/A   Mostly Cloudy
7:50 PM 44.6 °F 37.4 °F 76% 29.77 in 6.2 mi Variable 1.2 mph - N/A   Mostly Cloudy
8:50 PM 42.8 °F 39.2 °F 87% 29.77 in 6.2 mi Variable 1.2 mph - N/A   Scattered Clouds
9:50 PM 44.6 °F 39.2 °F 81% 29.77 in 6.2 mi Calm Calm - N/A Rain Light Rain
10:50 PM 48.2 °F 39.2 °F 71% 29.77 in 6.2 mi Variable 4.6 mph - N/A Rain Light Rain